Miscellaneous Local Product
Issued by NWS Hastings, NE

Home | Current Version | Previous Version | Text Only | Print | Product List | Glossary Off
Versions: 1 2 3 4 5 6 7 8 9 10 11 12 13 14 15 16 17 18 19 20 21 22 23 24 25 26 27 28 29 30 31 32 33 34 35 36 37 38 39 40 41 42 43 44 45 46 47 48 49 50

000
AXUS43 KGID 291502
MISGRI

GID CWA HOURLY WEATHER ROUNDUP
NATIONAL WEATHER SERVICE HASTINGS NE
1000 AM CDT SAT AUG 29 2015

NOTE: "FAIR" INDICATES FEW OR NO CLOUDS BELOW 12,000 FEET WITH NO
SIGNIFICANT WEATHER AND/OR OBSTRUCTIONS TO VISIBILITY.

...SOUTH CENTRAL NEBRASKA...

CITY           SKY/WX    TMP DP  RH WIND       PRES   REMARKS
GRAND ISLAND   FOG       59  59 100 CALM      30.12F VSB 1/2
HASTINGS       CLOUDY    62  61  96 N6        30.12S FOG
KEARNEY        SUNNY     64  59  82 N5        30.13R
ORD            SUNNY     64  61  90 CALM      30.11S
YORK           CLOUDY    59  59 100 N6        30.11R
AURORA         CLOUDY    60  60 100 N5        30.11S
LEXINGTON      SUNNY     64  62  96 W3        30.13S
HOLDREGE       SUNNY     65  61  86 N3        30.13S
HEBRON         CLOUDY    62  57  86 N7        30.09S

...NEBRASKA PANHANDLE...

CITY           SKY/WX    TMP DP  RH WIND       PRES   REMARKS
CHADRON        SUNNY     71  53  52 CALM      30.11S HAZE
ALLIANCE       SUNNY     67  51  56 SW3       30.17S
SCOTTSBLUFF    SUNNY     63  50  62 E5        30.18S
SIDNEY         SUNNY     70  48  45 W5        30.21F

...WESTERN AND NORTH CENTRAL NEBRASKA...

CITY           SKY/WX    TMP DP  RH WIND       PRES   REMARKS
VALENTINE      PTSUNNY   64  60  87 SW6       30.09S
AINSWORTH      PTSUNNY   67  63  86 SW5       30.11R
ONEILL         SUNNY     67  66  97 CALM      30.11R
BROKEN BOW     SUNNY     68  64  87 CALM      30.12S
IMPERIAL       SUNNY     68  56  65 W3        30.17S
NORTH PLATTE   SUNNY     66  61  84 W5        30.15S
MCCOOK         SUNNY     68  60  75 W6        30.14S

...EASTERN NEBRASKA...

CITY           SKY/WX    TMP DP  RH WIND       PRES   REMARKS
NORFOLK        CLOUDY    61  58  90 NW5       30.09F
SO SIOUX CITY  CLOUDY    62  57  83 CALM      30.08S
TEKAMAH        CLOUDY    63  60  90 N6        30.07S
COLUMBUS       CLOUDY    61  54  77 NW5       30.11R
ALBION         FOG       58  57  94 W3        30.11S VSB 1/4
OMAHA EPPLEY   CLOUDY    62  60  93 N9        30.06S
OFFUTT AFB     CLOUDY    62  60  93 NW7       30.05S FOG
MILLARD        CLOUDY    62  59  90 N5        30.06S
LINCOLN        CLOUDY    62  59  90 N10       30.09R
NEBRASKA CITY  CLOUDY    62  62  99 N8        30.05S FOG
BEATRICE       CLOUDY    63  61  95 N10       30.07R FOG
FALLS CITY     CLOUDY    65  63  93 N8        30.03R

...NORTHERN KANSAS...

CITY           SKY/WX    TMP DP  RH WIND       PRES   REMARKS
GOODLAND       SUNNY     72  58  61 W6        30.21S
HILL CITY      SUNNY     73  64  73 NW6       30.14S
NORTON         SUNNY     68  61  77 W5        30.14R
PHILLIPSBURG   SUNNY     70  63  78 NW10      30.13S
SMITH CENTER   SUNNY     64  61  88 N7        30.12S
HAYS           SUNNY     72  57  60 N16       30.11F
RUSSELL        SUNNY     67  62  84 NW16      30.09S
CONCORDIA      CLOUDY    62  60  93 N12       30.08S
SALINA         PTSUNNY   68  60  75 N14       30.07R
TOPEKA         CLOUDY    67  65  93 N7        30.02S



USA.gov is the U.S. government's official web portal to all federal, state and local government web resources and services.